This is the latest recevied weather packets stored in our database for station/object W2MMD-13. If no packets are shown the sender has not sent any weather packets the latest 10 day(s).
| Time | Temp. | Humidity | Pressure | Rain* | Wind** | Luminosity | Snow |
|---|---|---|---|---|---|---|---|
| 1777659519 | 17.22° C | 43% | - | 0 mm | - | - | - |
| 1777658932 | 17.78° C | 42% | - | 0 mm | - | - | - |
| 1777658920 | 17.78° C | 42% | - | 0 mm | - | - | - |
| 1777658320 | 17.78° C | 42% | - | 0 mm | - | - | - |
| 1777657731 | 17.22° C | 43% | - | 0 mm | - | - | - |
| 1777657720 | 17.78° C | 42% | - | 0 mm | - | - | - |
| 1777657119 | 17.78° C | 41% | - | 0 mm | - | - | - |
| 1777656520 | 17.78° C | 44% | - | 0 mm | - | - | - |
| 1777655919 | 17.78° C | 42% | - | 0 mm | - | - | - |
| 1777655319 | 17.22° C | 42% | - | 0 mm | - | - | - |
| 1777654719 | 16.67° C | 42% | - | 0 mm | - | - | - |
| 1777654119 | 16.11° C | 44% | - | 0 mm | - | - | - |
| 1777653531 | 16.11° C | 44% | - | 0 mm | - | - | - |
| 1777653519 | 16.11° C | 44% | - | 0 mm | - | - | - |
| 1777652931 | 16.67° C | 46% | - | 0 mm | - | - | - |
| 1777652919 | 16.67° C | 46% | - | 0 mm | - | - | - |
| 1777652319 | 16.67° C | 42% | - | 0 mm | - | - | - |
| 1777651719 | 16.67° C | 48% | - | 0 mm | - | - | - |
| 1777651119 | 16.67° C | 45% | - | 0 mm | - | - | - |
| 1777650530 | 16.11° C | 48% | - | 0 mm | - | - | - |
| 1777650519 | 16.11° C | 48% | - | 0 mm | - | - | - |
| 1777649919 | 15.56° C | 45% | - | 0 mm | - | - | - |
| 1777649331 | 15° C | 46% | - | 0 mm | - | - | - |
| 1777649319 | 15° C | 47% | - | 0 mm | - | - | - |
| 1777648719 | 15.56° C | 47% | - | 0 mm | - | - | - |
* Rain latest hour (hover to see other rain measurements)
** Current wind speed in m/s (hover to see current wind gust speed)